Home > Weather > Aligarh > Past weeks

Flag for India Past Weather in Aligarh, Uttar Pradesh, India — Yesterday and Last 2 Weeks

Now
82 °F

Broken clouds.


Feels Like: 83 °F
Forecast: 82 / 104 °F
Wind: 7 mph from South

Location: New Delhi Palam Airport

Current Time: May 29, 2016 at 7:32:49 AM

Latest Report: May 29, 2016 at 7:00 AM


Visibility: 2 mi

Pressure: 29.59 "Hg

Humidity: 48%

Dew Point: 61 °F

Location of AligarhLocation

Past Weather in Aligarh — Graph

°F

Aligarh Temperature Yesterday

Maximum temperature yesterday: 108 °F (at 3:00 PM)
Minimum temperature yesterday: 79 °F (at 11:30 PM)
Average temperature yesterday: 98 °F

High & Low Weather Summary for the Past Weeks

 TemperatureHumidityPressure
High117 °F (May 18, 3:30 PM)83% (May 23, 7:30 PM)29.74 "Hg (May 23, 7:30 PM)
Low73 °F (May 29, 2:00 AM)8% (May 18, 2:00 PM)29.39 "Hg (May 20, 5:00 PM)
Average96 °F36%29.55 "Hg
* Reported May 14 5:30 AM — May 29 6:00 AM, Aligarh, Weather by CustomWeather, © 2016

Note: Actual official high and low records may vary slightly from our data, if they occured in-between our weather recording intervals... More about our weather records

Advertising

Aligarh Weather History for the Previous 24 Hours

Scroll right to see more
 ConditionsComfort  
Time TempWeatherWind HumidityBarometerVisibility
6:00 AM
Sun, May 29
77 °FBroken clouds.12 mph69%29.56 "Hg1 mi
5:30 AM77 °FPartly cloudy.9 mph69%29.56 "Hg1 mi
5:00 AM77 °FPartly cloudy.12 mph69%29.56 "Hg1 mi
4:30 AM75 °FThunderstorms. Partly cloudy.9 mph78%29.56 "Hg1 mi
4:00 AM75 °FThunderstorms. Partly cloudy.7 mph78%29.53 "Hg1 mi
3:30 AM75 °FThunderstorms. Partly cloudy.7 mph78%29.53 "Hg2 mi
3:00 AM75 °FThunderstorms. Partly cloudy.10 mph74%29.56 "Hg2 mi
2:30 AM75 °FThunderstorms. Partly cloudy.9 mph74%29.56 "Hg2 mi
2:00 AM73 °FThunderstorms. Partly cloudy.9 mph78%29.56 "Hg2 mi
1:30 AM75 °FThunderstorms. Partly cloudy.9 mph74%29.56 "Hg2 mi
1:00 AM79 °FThunderstorms. Partly cloudy.12 mph61%29.62 "Hg2 mi
12:30 AM79 °FThunderstorms. Partly cloudy.12 mph61%29.62 "Hg2 mi
11:30 PM
Sat, May 28
79 °FThunderstorms. Partly cloudy.12 mph61%29.59 "Hg2 mi
11:00 PM81 °FThunderstorms. Partly cloudy.17 mph58%29.59 "Hg1 mi
10:30 PM84 °FThunderstorms. Partly cloudy.17 mph51%29.59 "Hg1 mi
10:00 PM88 °FPassing clouds.12 mph43%29.56 "Hg1 mi
9:30 PM102 °FPassing clouds.3 mph24%29.50 "Hg2 mi
9:00 PM102 °FPassing clouds.6 mph24%29.50 "Hg2 mi
8:30 PM102 °FHaze.6 mph24%29.47 "Hg2 mi
8:00 PM102 °FPassing clouds.6 mph23%29.47 "Hg2 mi
7:30 PM102 °FDuststorm.7 mph26%29.47 "Hg2 mi
7:00 PM104 °FDuststorm.8 mph24%29.47 "Hg2 mi
6:30 PM104 °FDuststorm.10 mph24%29.47 "Hg2 mi
6:00 PM106 °FDuststorm.10 mph23%29.47 "Hg2 mi
5:30 PM106 °FDuststorm.10 mph23%29.47 "Hg2 mi
5:00 PM108 °FDuststorm.13 mph20%29.50 "Hg2 mi
4:30 PM108 °FDuststorm.12 mph20%29.50 "Hg2 mi
4:00 PM108 °FDuststorm.10 mph20%29.50 "Hg2 mi
3:30 PM108 °FDuststorm.9 mph20%29.50 "Hg2 mi
3:00 PM108 °FDuststorm.12 mph23%29.53 "Hg2 mi
2:30 PM106 °FLow level haze.9 mph25%29.56 "Hg2 mi
2:00 PM106 °FLow level haze.9 mph25%29.56 "Hg2 mi
1:30 PM106 °FLow level haze.14 mph23%29.59 "Hg2 mi
1:00 PM106 °FLow level haze.14 mph23%29.59 "Hg2 mi
12:30 PM104 °FLow level haze.12 mph24%29.59 "Hg2 mi
12:00 PM102 °FLow level haze.13 mph26%29.62 "HgN/A
11:30 AM102 °FLow level haze.12 mph26%29.62 "Hg2 mi
11:00 AM100 °FLow level haze.15 mph27%29.62 "Hg2 mi
10:30 AM100 °FLow level haze.15 mph27%29.62 "Hg2 mi
10:00 AM100 °FDuststorm.15 mph24%29.62 "Hg2 mi
9:30 AM100 °FDuststorm.12 mph24%29.62 "Hg2 mi
9:00 AM99 °FDuststorm.12 mph25%29.62 "Hg1 mi
8:30 AM97 °FDuststorm.9 mph27%29.62 "Hg1 mi
8:00 AM95 °FDuststorm.12 mph28%29.62 "Hg1 mi
7:30 AM93 °FDuststorm.12 mph30%29.62 "Hg1 mi
7:00 AM91 °FDuststorm.10 mph32%29.62 "Hg1 mi
Weather by CustomWeather, © 2016

See weather overviewHow to use our weather pages